| time (UTC) | temp C | wind direction | speed KPH | gust KPH | rain 1hr cm | rain 24hr cm | rain mn cm | humidity % | barometer mb |
| 20260505153256 | 20 | 330 | 0.0 | 0.0 | 0.00 | 0.00 | 0.00 | 46 | 1018.0 |
| 20260505152754 | 20 | 324 | 1.6 | 3.2 | 0.00 | 0.00 | 0.00 | 46 | 1018.2 |
| 20260505152250 | 20 | 318 | 0.0 | 1.6 | 0.00 | 0.00 | 0.00 | 55 | 1018.1 |
| 20260505151749 | 20 | 329 | 1.6 | 1.6 | 0.00 | 0.00 | 0.00 | 50 | 1018.2 |
| 20260505151247 | 20 | 329 | 0.0 | 0.0 | 0.00 | 0.00 | 0.00 | 53 | 1018.1 |
| 20260505150744 | 20 | 333 | 1.6 | 1.6 | 0.00 | 0.00 | 0.00 | 49 | 1018.1 |
| 20260505150241 | 20 | 339 | 3.2 | 3.2 | 0.00 | 0.00 | 0.00 | 54 | 1017.8 |
| 20260505140206 | 16 | 320 | 0.0 | 0.0 | 0.00 | 0.00 | 0.00 | 65 | 1018.5 |
| 20260505130130 | 12 | 330 | 0.0 | 0.0 | 0.00 | 0.00 | 0.00 | 75 | 1017.7 |
| 20260505124619 | 12 | 333 | 0.0 | 0.0 | 0.00 | 0.00 | 0.00 | 77 | 1017.5 |
| 20260505124116 | 11 | 332 | 0.0 | 1.6 | 0.00 | 0.00 | 0.00 | 76 | 1017.3 |
| 20260505123612 | 11 | 328 | 0.0 | 1.6 | 0.00 | 0.00 | 0.00 | 77 | 1017.5 |
| 20260505123109 | 11 | 313 | 0.0 | 1.6 | 0.00 | 0.00 | 0.00 | 79 | 1017.5 |
| 20260505122605 | 10 | 324 | 0.0 | 0.0 | 0.00 | 0.00 | 0.00 | 81 | 1017.4 |
| 20260505122102 | 10 | 321 | 0.0 | 1.6 | 0.00 | 0.00 | 0.00 | 84 | 1017.4 |
| 20260505121559 | 10 | 307 | 1.6 | 1.6 | 0.00 | 0.00 | 0.00 | 84 | 1017.5 |
| 20260505121056 | 10 | 312 | 1.6 | 1.6 | 0.00 | 0.00 | 0.00 | 84 | 1017.3 |
| 20260505120552 | 10 | 327 | 1.6 | 1.6 | 0.00 | 0.00 | 0.00 | 84 | 1017.4 |
| 20260505120048 | 10 | 330 | 0.0 | 0.0 | 0.00 | 0.00 | 0.00 | 85 | 1017.3 |
| 20260505115542 | 9 | 332 | 0.0 | 0.0 | 0.00 | 0.00 | 0.00 | 87 | 1017.5 |
| 20260505115040 | 9 | 331 | 0.0 | 0.0 | 0.00 | 0.00 | 0.00 | 86 | 1017.1 |
| 20260505114537 | 9 | 332 | 0.0 | 0.0 | 0.00 | 0.00 | 0.00 | 87 | 1017.2 |
| 20260505114033 | 9 | 324 | 0.0 | 0.0 | 0.00 | 0.00 | 0.00 | 86 | 1017.1 |
| 20260505113530 | 9 | 320 | 0.0 | 0.0 | 0.00 | 0.00 | 0.00 | 86 | 1017.0 |
| 20260505113026 | 9 | 321 | 0.0 | 0.0 | 0.00 | 0.00 | 0.00 | 87 | 1017.2 |
| 20260505112522 | 9 | 321 | 0.0 | 0.0 | 0.00 | 0.00 | 0.00 | 86 | 1017.0 |
| 20260505112020 | 9 | 323 | 0.0 | 0.0 | 0.00 | 0.00 | 0.00 | 86 | 1016.7 |
| 20260505111514 | 8 | 314 | 0.0 | 0.0 | 0.00 | 0.00 | 0.00 | 88 | 1017.0 |
| 20260505111011 | 8 | 324 | 0.0 | 0.0 | 0.00 | 0.00 | 0.00 | 89 | 1016.9 |
| 20260505110508 | 9 | 324 | 0.0 | 0.0 | 0.00 | 0.00 | 0.00 | 88 | 1016.9 |
| 20260505101939 | 8 | 318 | 0.0 | 0.0 | 0.00 | 0.00 | 0.00 | 91 | 1017.0 |
| 20260505101432 | 8 | 318 | 0.0 | 0.0 | 0.00 | 0.00 | 0.00 | 90 | 1017.0 |
| 20260505100929 | 8 | 318 | 0.0 | 0.0 | 0.00 | 0.00 | 0.00 | 90 | 1017.0 |
| 20260505100426 | 8 | 318 | 0.0 | 0.0 | 0.00 | 0.00 | 0.00 | 89 | 1016.7 |
| 20260505095921 | 8 | 318 | 0.0 | 0.0 | 0.00 | 0.00 | 0.00 | 89 | 1017.0 |
| 20260505095419 | 9 | 318 | 0.0 | 0.0 | 0.00 | 0.00 | 0.00 | 89 | 1017.0 |
| 20260505094914 | 8 | 318 | 0.0 | 0.0 | 0.00 | 0.00 | 0.00 | 88 | 1016.5 |
| 20260505094412 | 8 | 318 | 0.0 | 0.0 | 0.00 | 0.00 | 0.00 | 88 | 1016.5 |
| 20260505093908 | 8 | 318 | 0.0 | 0.0 | 0.00 | 0.00 | 0.00 | 90 | 1016.6 |
| 20260505093405 | 8 | 318 | 0.0 | 0.0 | 0.00 | 0.00 | 0.00 | 89 | 1016.7 |
| 20260505092902 | 9 | 318 | 0.0 | 0.0 | 0.00 | 0.00 | 0.00 | 89 | 1016.6 |
| 20260505092400 | 9 | 318 | 0.0 | 0.0 | 0.00 | 0.00 | 0.00 | 89 | 1016.9 |
| 20260505091857 | 9 | 318 | 0.0 | 0.0 | 0.00 | 0.00 | 0.00 | 88 | 1016.7 |
| 20260505091355 | 9 | 318 | 0.0 | 0.0 | 0.00 | 0.00 | 0.00 | 88 | 1017.0 |
| 20260505090853 | 9 | 318 | 0.0 | 0.0 | 0.00 | 0.00 | 0.00 | 90 | 1016.9 |
| 20260505090351 | 9 | 318 | 0.0 | 0.0 | 0.00 | 0.00 | 0.00 | 91 | 1017.1 |
| 20260505085848 | 9 | 318 | 0.0 | 0.0 | 0.00 | 0.00 | 0.00 | 91 | 1017.1 |
| 20260505085346 | 9 | 318 | 0.0 | 0.0 | 0.00 | 0.00 | 0.00 | 91 | 1016.7 |
| 20260505084843 | 9 | 318 | 0.0 | 0.0 | 0.00 | 0.00 | 0.00 | 90 | 1016.7 |
| 20260505084341 | 10 | 318 | 0.0 | 0.0 | 0.00 | 0.00 | 0.00 | 89 | 1016.7 |
| 20260505083838 | 10 | 318 | 0.0 | 0.0 | 0.00 | 0.00 | 0.00 | 88 | 1016.9 |
| 20260505083336 | 10 | 318 | 0.0 | 0.0 | 0.00 | 0.00 | 0.00 | 87 | 1016.9 |
| 20260505082832 | 10 | 318 | 0.0 | 0.0 | 0.00 | 0.00 | 0.00 | 85 | 1017.1 |
| 20260505082328 | 10 | 318 | 0.0 | 0.0 | 0.00 | 0.00 | 0.00 | 85 | 1017.1 |
| 20260505081825 | 10 | 318 | 0.0 | 0.0 | 0.00 | 0.00 | 0.00 | 85 | 1016.6 |
| 20260505081322 | 10 | 318 | 0.0 | 0.0 | 0.00 | 0.00 | 0.00 | 84 | 1016.9 |
| 20260505080819 | 10 | 318 | 0.0 | 0.0 | 0.00 | 0.00 | 0.00 | 84 | 1016.9 |
| 20260505080314 | 10 | 318 | 0.0 | 0.0 | 0.00 | 0.00 | 0.00 | 83 | 1017.0 |
| 20260505075810 | 10 | 318 | 0.0 | 0.0 | 0.00 | 0.00 | 0.00 | 83 | 1016.9 |
| 20260505075307 | 10 | 318 | 0.0 | 0.0 | 0.00 | 0.00 | 0.00 | 82 | 1016.7 |
| 20260505074805 | 10 | 318 | 0.0 | 0.0 | 0.00 | 0.00 | 0.00 | 81 | 1017.1 |
| 20260505074302 | 10 | 318 | 0.0 | 0.0 | 0.00 | 0.00 | 0.00 | 80 | 1016.7 |
| 20260505073759 | 11 | 318 | 0.0 | 0.0 | 0.00 | 0.00 | 0.00 | 79 | 1016.7 |
| 20260505073257 | 11 | 318 | 0.0 | 0.0 | 0.00 | 0.00 | 0.00 | 78 | 1016.9 |
| 20260505072754 | 11 | 318 | 0.0 | 0.0 | 0.00 | 0.00 | 0.00 | 78 | 1017.0 |
| 20260505072250 | 11 | 318 | 0.0 | 0.0 | 0.00 | 0.00 | 0.00 | 77 | 1016.9 |
| 20260505071745 | 11 | 318 | 0.0 | 0.0 | 0.00 | 0.00 | 0.00 | 77 | 1017.0 |
| 20260505071242 | 11 | 318 | 0.0 | 0.0 | 0.00 | 0.00 | 0.00 | 76 | 1016.7 |
| 20260505070740 | 11 | 318 | 0.0 | 0.0 | 0.00 | 0.00 | 0.00 | 76 | 1017.1 |
| 20260505070236 | 11 | 318 | 0.0 | 0.0 | 0.00 | 0.00 | 0.00 | 78 | 1016.9 |
| 20260505065732 | 11 | 318 | 0.0 | 0.0 | 0.00 | 0.00 | 0.00 | 76 | 1016.6 |
| 20260505065229 | 11 | 318 | 0.0 | 0.0 | 0.00 | 0.00 | 0.00 | 75 | 1016.6 |
| 20260505064726 | 11 | 319 | 0.0 | 0.0 | 0.00 | 0.00 | 0.00 | 77 | 1017.0 |
| 20260505064224 | 11 | 319 | 0.0 | 0.0 | 0.00 | 0.00 | 0.00 | 78 | 1016.7 |
| 20260505063721 | 11 | 319 | 0.0 | 0.0 | 0.00 | 0.00 | 0.00 | 77 | 1016.9 |
| 20260505063217 | 11 | 317 | 0.0 | 0.0 | 0.00 | 0.00 | 0.00 | 78 | 1016.9 |
| 20260505062713 | 11 | 319 | 0.0 | 0.0 | 0.00 | 0.00 | 0.00 | 77 | 1016.7 |
| 20260505062211 | 11 | 319 | 0.0 | 0.0 | 0.00 | 0.00 | 0.00 | 77 | 1016.9 |
| 20260505061708 | 11 | 319 | 0.0 | 0.0 | 0.00 | 0.00 | 0.00 | 76 | 1016.9 |
| 20260505061206 | 11 | 319 | 0.0 | 0.0 | 0.00 | 0.00 | 0.00 | 76 | 1016.9 |
| 20260505060703 | 12 | 319 | 0.0 | 0.0 | 0.00 | 0.00 | 0.00 | 77 | 1016.7 |
| 20260505060200 | 12 | 319 | 0.0 | 0.0 | 0.00 | 0.00 | 0.00 | 76 | 1016.9 |
| 20260505055655 | 12 | 319 | 0.0 | 0.0 | 0.00 | 0.00 | 0.00 | 75 | 1016.9 |
| 20260505055152 | 12 | 319 | 0.0 | 0.0 | 0.00 | 0.00 | 0.00 | 73 | 1017.0 |
| 20260505054649 | 12 | 319 | 0.0 | 0.0 | 0.00 | 0.00 | 0.00 | 73 | 1017.1 |
| 20260505054147 | 12 | 319 | 0.0 | 0.0 | 0.00 | 0.00 | 0.00 | 72 | 1016.9 |
| 20260505053645 | 12 | 319 | 0.0 | 0.0 | 0.00 | 0.00 | 0.00 | 72 | 1017.1 |
| 20260505053141 | 12 | 321 | 0.0 | 0.0 | 0.00 | 0.00 | 0.00 | 73 | 1017.1 |
| 20260505052638 | 12 | 320 | 0.0 | 0.0 | 0.00 | 0.00 | 0.00 | 73 | 1017.1 |
| 20260505052135 | 12 | 320 | 0.0 | 0.0 | 0.00 | 0.00 | 0.00 | 73 | 1017.1 |
| 20260505051632 | 12 | 320 | 0.0 | 0.0 | 0.00 | 0.00 | 0.00 | 74 | 1017.0 |
| 20260505051130 | 12 | 321 | 0.0 | 0.0 | 0.00 | 0.00 | 0.00 | 73 | 1016.7 |
| 20260505050628 | 12 | 321 | 0.0 | 0.0 | 0.00 | 0.00 | 0.00 | 73 | 1017.0 |
| 20260505050126 | 12 | 321 | 0.0 | 0.0 | 0.00 | 0.00 | 0.00 | 74 | 1017.2 |
| 20260505041555 | 15 | 320 | 0.0 | 0.0 | 0.00 | 0.00 | 0.00 | 62 | 1017.0 |
| 20260505041053 | 15 | 320 | 0.0 | 0.0 | 0.00 | 0.00 | 0.00 | 59 | 1017.0 |
| 20260505040550 | 15 | 318 | 0.0 | 0.0 | 0.00 | 0.00 | 0.00 | 58 | 1017.1 |
| 20260505040047 | 14 | 321 | 0.0 | 0.0 | 0.00 | 0.00 | 0.00 | 67 | 1017.0 |
| 20260505035543 | 14 | 325 | 0.0 | 0.0 | 0.00 | 0.00 | 0.00 | 64 | 1017.2 |
| 20260505035040 | 13 | 318 | 0.0 | 0.0 | 0.00 | 0.00 | 0.00 | 70 | 1017.1 |
| 20260505034536 | 13 | 318 | 0.0 | 0.0 | 0.00 | 0.00 | 0.00 | 68 | 1017.2 |
| 20260505034033 | 13 | 318 | 0.0 | 0.0 | 0.00 | 0.00 | 0.00 | 69 | 1017.3 |
| 20260505033530 | 13 | 317 | 0.0 | 0.0 | 0.00 | 0.00 | 0.00 | 72 | 1017.1 |
| 20260505033029 | 13 | 317 | 0.0 | 0.0 | 0.00 | 0.00 | 0.00 | 72 | 1017.2 |
| 20260505032526 | 13 | 317 | 0.0 | 0.0 | 0.00 | 0.00 | 0.00 | 71 | 1017.1 |
| 20260505032022 | 13 | 317 | 0.0 | 0.0 | 0.00 | 0.00 | 0.00 | 71 | 1017.0 |
| 20260505031520 | 14 | 317 | 0.0 | 0.0 | 0.00 | 0.00 | 0.00 | 69 | 1017.1 |
| 20260505031016 | 15 | 318 | 0.0 | 0.0 | 0.00 | 0.00 | 0.00 | 67 | 1017.3 |
| 20260505030513 | 15 | 322 | 0.0 | 0.0 | 0.00 | 0.00 | 0.00 | 65 | 1017.0 |
| 20260505030009 | 15 | 322 | 0.0 | 0.0 | 0.00 | 0.00 | 0.00 | 65 | 1017.2 |
| 20260505025505 | 15 | 326 | 0.0 | 0.0 | 0.00 | 0.00 | 0.00 | 65 | 1017.2 |
| 20260505025004 | 15 | 320 | 0.0 | 0.0 | 0.00 | 0.00 | 0.00 | 65 | 1017.2 |
| 20260505024500 | 15 | 318 | 0.0 | 0.0 | 0.00 | 0.00 | 0.00 | 64 | 1017.1 |
| 20260505023958 | 15 | 318 | 0.0 | 0.0 | 0.00 | 0.00 | 0.00 | 63 | 1017.1 |
| 20260505023454 | 15 | 319 | 0.0 | 0.0 | 0.00 | 0.00 | 0.00 | 60 | 1017.0 |
| 20260505022952 | 15 | 330 | 0.0 | 0.0 | 0.00 | 0.00 | 0.00 | 59 | 1016.9 |
| 20260505022449 | 16 | 328 | 0.0 | 0.0 | 0.00 | 0.00 | 0.00 | 59 | 1017.1 |
| 20260505021947 | 16 | 324 | 0.0 | 0.0 | 0.00 | 0.00 | 0.00 | 58 | 1017.0 |
| 20260505021443 | 16 | 326 | 0.0 | 0.0 | 0.00 | 0.00 | 0.00 | 56 | 1017.1 |
| 20260505020939 | 16 | 318 | 0.0 | 0.0 | 0.00 | 0.00 | 0.00 | 54 | 1017.0 |
| 20260505020434 | 16 | 323 | 0.0 | 0.0 | 0.00 | 0.00 | 0.00 | 54 | 1017.1 |
| 20260505015931 | 16 | 321 | 0.0 | 0.0 | 0.00 | 0.00 | 0.00 | 53 | 1016.9 |
| 20260505015428 | 16 | 321 | 0.0 | 0.0 | 0.00 | 0.00 | 0.00 | 53 | 1016.6 |
| 20260505014926 | 17 | 321 | 0.0 | 0.0 | 0.00 | 0.00 | 0.00 | 53 | 1016.6 |
| 20260505014422 | 17 | 321 | 0.0 | 0.0 | 0.00 | 0.00 | 0.00 | 52 | 1016.6 |
| 20260505013919 | 17 | 322 | 0.0 | 0.0 | 0.00 | 0.00 | 0.00 | 52 | 1016.4 |
| 20260505013416 | 17 | 321 | 0.0 | 0.0 | 0.00 | 0.00 | 0.00 | 52 | 1016.4 |
| 20260505012914 | 17 | 320 | 0.0 | 0.0 | 0.00 | 0.00 | 0.00 | 52 | 1016.7 |
| 20260505012412 | 17 | 326 | 0.0 | 0.0 | 0.00 | 0.00 | 0.00 | 53 | 1016.6 |
| 20260505011908 | 17 | 323 | 0.0 | 1.6 | 0.00 | 0.00 | 0.00 | 53 | 1016.5 |
| 20260505011405 | 17 | 323 | 0.0 | 0.0 | 0.00 | 0.00 | 0.00 | 53 | 1016.7 |
| 20260505010901 | 17 | 320 | 0.0 | 0.0 | 0.00 | 0.00 | 0.00 | 52 | 1016.6 |
| 20260505010357 | 17 | 321 | 1.6 | 1.6 | 0.00 | 0.00 | 0.00 | 52 | 1016.4 |
| 20260505005853 | 17 | 323 | 0.0 | 0.0 | 0.00 | 0.00 | 0.00 | 54 | 1016.4 |
| 20260505005350 | 17 | 321 | 0.0 | 0.0 | 0.00 | 0.00 | 0.00 | 53 | 1016.4 |
| 20260505004848 | 17 | 325 | 0.0 | 0.0 | 0.00 | 0.00 | 0.00 | 54 | 1016.3 |
| 20260505004344 | 18 | 323 | 0.0 | 0.0 | 0.00 | 0.00 | 0.00 | 53 | 1016.3 |
| 20260505003841 | 18 | 319 | 0.0 | 0.0 | 0.00 | 0.00 | 0.00 | 50 | 1016.3 |
| 20260505003339 | 18 | 318 | 1.6 | 1.6 | 0.00 | 0.00 | 0.00 | 49 | 1016.1 |
| 20260505002834 | 18 | 268 | 3.2 | 3.2 | 0.00 | 0.00 | 0.00 | 49 | 1016.1 |
| 20260505002331 | 18 | 54 | 6.4 | 9.7 | 0.00 | 0.00 | 0.00 | 48 | 1016.1 |
| 20260505001830 | 18 | 316 | 1.6 | 1.6 | 0.00 | 0.00 | 0.00 | 52 | 1016.1 |
| 20260505001326 | 18 | 321 | 1.6 | 3.2 | 0.00 | 0.00 | 0.00 | 49 | 1016.0 |
| 20260505000824 | 18 | 283 | 3.2 | 3.2 | 0.00 | 0.00 | 0.00 | 50 | 1016.1 |
| 20260505000321 | 19 | 319 | 0.0 | 0.0 | 0.00 | 0.00 | 0.00 | 49 | 1016.2 |
| 20260504235818 | 19 | 319 | 1.6 | 3.2 | 0.00 | 0.00 | 0.00 | 49 | 1016.2 |
| 20260504235315 | 19 | 311 | 1.6 | 1.6 | 0.00 | 0.00 | 0.00 | 49 | 1015.9 |
| 20260504234811 | 19 | 312 | 1.6 | 3.2 | 0.00 | 0.00 | 0.00 | 49 | 1016.1 |
| 20260504234309 | 19 | 320 | 1.6 | 1.6 | 0.00 | 0.00 | 0.00 | 47 | 1015.6 |
| 20260504233805 | 18 | 72 | 4.8 | 8.0 | 0.00 | 0.00 | 0.00 | 47 | 1016.0 |
| 20260504233301 | 19 | 313 | 1.6 | 1.6 | 0.00 | 0.00 | 0.00 | 51 | 1015.8 |
| 20260504232758 | 19 | 339 | 3.2 | 4.8 | 0.00 | 0.00 | 0.00 | 48 | 1015.8 |
| 20260504232255 | 19 | 306 | 1.6 | 3.2 | 0.00 | 0.00 | 0.00 | 48 | 1015.8 |
| 20260504231752 | 20 | 316 | 3.2 | 3.2 | 0.00 | 0.00 | 0.00 | 47 | 1015.6 |
| 20260504231249 | 20 | 317 | 1.6 | 1.6 | 0.00 | 0.00 | 0.00 | 48 | 1015.7 |
| 20260504230744 | 20 | 321 | 0.0 | 1.6 | 0.00 | 0.00 | 0.00 | 49 | 1015.6 |
| 20260504230243 | 20 | 341 | 1.6 | 1.6 | 0.00 | 0.00 | 0.00 | 46 | 1015.8 |
| 20260504225741 | 20 | 309 | 1.6 | 1.6 | 0.00 | 0.00 | 0.00 | 47 | 1015.4 |
| 20260504225237 | 20 | 314 | 0.0 | 0.0 | 0.00 | 0.00 | 0.00 | 52 | 1015.8 |
| 20260504224735 | 20 | 305 | 1.6 | 1.6 | 0.00 | 0.00 | 0.00 | 50 | 1015.6 |
| 20260504224232 | 20 | 332 | 1.6 | 3.2 | 0.00 | 0.00 | 0.00 | 46 | 1015.8 |
| 20260504223728 | 20 | 326 | 3.2 | 3.2 | 0.00 | 0.00 | 0.00 | 45 | 1015.8 |
| 20260504223224 | 21 | 316 | 0.0 | 0.0 | 0.00 | 0.00 | 0.00 | 49 | 1015.5 |
| 20260504222721 | 20 | 344 | 1.6 | 1.6 | 0.00 | 0.00 | 0.00 | 47 | 1015.6 |
| 20260504222218 | 20 | 333 | 1.6 | 3.2 | 0.00 | 0.00 | 0.00 | 47 | 1015.7 |
| 20260504221715 | 21 | 324 | 1.6 | 1.6 | 0.00 | 0.00 | 0.00 | 46 | 1015.7 |
| 20260504221212 | 21 | 315 | 0.0 | 0.0 | 0.00 | 0.00 | 0.00 | 47 | 1015.8 |
| 20260504220708 | 21 | 26 | 1.6 | 1.6 | 0.00 | 0.00 | 0.00 | 46 | 1015.7 |
| 20260504220206 | 21 | 343 | 1.6 | 1.6 | 0.00 | 0.00 | 0.00 | 47 | 1015.5 |
| 20260504215702 | 21 | 313 | 1.6 | 1.6 | 0.00 | 0.00 | 0.00 | 47 | 1015.2 |
| 20260504215200 | 21 | 315 | 1.6 | 3.2 | 0.00 | 0.00 | 0.00 | 47 | 1015.7 |
| 20260504214655 | 21 | 320 | 0.0 | 1.6 | 0.00 | 0.00 | 0.00 | 45 | 1015.6 |
| 20260504214152 | 21 | 331 | 3.2 | 3.2 | 0.00 | 0.00 | 0.00 | 45 | 1015.5 |
| 20260504213649 | 21 | 286 | 0.0 | 1.6 | 0.00 | 0.00 | 0.00 | 45 | 1015.5 |
| 20260504213145 | 21 | 319 | 1.6 | 3.2 | 0.00 | 0.00 | 0.00 | 45 | 1015.6 |
| 20260504212642 | 21 | 315 | 0.0 | 1.6 | 0.00 | 0.00 | 0.00 | 48 | 1015.5 |
| 20260504212138 | 21 | 326 | 0.0 | 0.0 | 0.00 | 0.00 | 0.00 | 45 | 1015.6 |
| 20260504211636 | 21 | 322 | 0.0 | 0.0 | 0.00 | 0.00 | 0.00 | 45 | 1015.5 |
| 20260504211132 | 21 | 314 | 1.6 | 1.6 | 0.00 | 0.00 | 0.00 | 45 | 1015.6 |
| 20260504210630 | 22 | 3 | 3.2 | 4.8 | 0.00 | 0.00 | 0.00 | 43 | 1015.6 |
| 20260504210126 | 22 | 323 | 3.2 | 3.2 | 0.00 | 0.00 | 0.00 | 43 | 1015.4 |
| 20260504205624 | 22 | 323 | 0.0 | 0.0 | 0.00 | 0.00 | 0.00 | 43 | 1015.8 |
| 20260504205121 | 22 | 328 | 0.0 | 0.0 | 0.00 | 0.00 | 0.00 | 42 | 1015.5 |
| 20260504204620 | 22 | 330 | 1.6 | 3.2 | 0.00 | 0.00 | 0.00 | 41 | 1015.5 |
| 20260504204118 | 22 | 328 | 0.0 | 0.0 | 0.00 | 0.00 | 0.00 | 44 | 1015.6 |
| 20260504203617 | 22 | 325 | 0.0 | 0.0 | 0.00 | 0.00 | 0.00 | 41 | 1015.7 |
| 20260504203114 | 22 | 331 | 0.0 | 1.6 | 0.00 | 0.00 | 0.00 | 41 | 1015.8 |
| 20260504202609 | 22 | 335 | 1.6 | 1.6 | 0.00 | 0.00 | 0.00 | 40 | 1015.7 |
| 20260504202106 | 22 | 324 | 0.0 | 0.0 | 0.00 | 0.00 | 0.00 | 41 | 1015.8 |
| 20260504201603 | 22 | 305 | 0.0 | 1.6 | 0.00 | 0.00 | 0.00 | 42 | 1015.9 |
| 20260504201101 | 22 | 325 | 0.0 | 0.0 | 0.00 | 0.00 | 0.00 | 41 | 1015.9 |
| 20260504200556 | 22 | 331 | 0.0 | 0.0 | 0.00 | 0.00 | 0.00 | 44 | 1015.9 |
| 20260504200054 | 22 | 331 | 1.6 | 1.6 | 0.00 | 0.00 | 0.00 | 44 | 1016.0 |
| 20260504195550 | 22 | 324 | 0.0 | 1.6 | 0.00 | 0.00 | 0.00 | 45 | 1016.4 |
| 20260504195046 | 22 | 322 | 0.0 | 0.0 | 0.00 | 0.00 | 0.00 | 43 | 1016.4 |
| 20260504194543 | 22 | 326 | 0.0 | 0.0 | 0.00 | 0.00 | 0.00 | 42 | 1016.3 |
| 20260504194038 | 22 | 323 | 0.0 | 0.0 | 0.00 | 0.00 | 0.00 | 43 | 1016.3 |
| 20260504193535 | 22 | 352 | 3.2 | 3.2 | 0.00 | 0.00 | 0.00 | 42 | 1016.6 |
| 20260504193034 | 21 | 325 | 0.0 | 1.6 | 0.00 | 0.00 | 0.00 | 40 | 1016.5 |
| 20260504192532 | 22 | 318 | 0.0 | 1.6 | 0.00 | 0.00 | 0.00 | 40 | 1016.6 |
| 20260504192030 | 22 | 326 | 0.0 | 0.0 | 0.00 | 0.00 | 0.00 | 42 | 1016.9 |
| 20260504191527 | 21 | 325 | 0.0 | 0.0 | 0.00 | 0.00 | 0.00 | 41 | 1017.1 |
| 20260504191023 | 22 | 322 | 0.0 | 0.0 | 0.00 | 0.00 | 0.00 | 44 | 1016.7 |
| 20260504190519 | 21 | 331 | 0.0 | 0.0 | 0.00 | 0.00 | 0.00 | 44 | 1016.9 |
| 20260504190015 | 21 | 343 | 1.6 | 3.2 | 0.00 | 0.00 | 0.00 | 41 | 1017.2 |
| 20260504185513 | 21 | 4 | 4.8 | 4.8 | 0.00 | 0.00 | 0.00 | 42 | 1017.3 |
| 20260504185009 | 21 | 322 | 0.0 | 0.0 | 0.00 | 0.00 | 0.00 | 44 | 1017.2 |
| 20260504184509 | 21 | 318 | 0.0 | 0.0 | 0.00 | 0.00 | 0.00 | 44 | 1017.2 |
| 20260504184005 | 20 | 320 | 0.0 | 1.6 | 0.00 | 0.00 | 0.00 | 44 | 1017.3 |
| 20260504183503 | 21 | 335 | 0.0 | 1.6 | 0.00 | 0.00 | 0.00 | 43 | 1017.5 |
| 20260504183001 | 21 | 318 | 0.0 | 1.6 | 0.00 | 0.00 | 0.00 | 43 | 1017.4 |
| 20260504182457 | 21 | 324 | 1.6 | 1.6 | 0.00 | 0.00 | 0.00 | 42 | 1017.6 |
| 20260504181955 | 21 | 303 | 3.2 | 3.2 | 0.00 | 0.00 | 0.00 | 45 | 1017.7 |
| 20260504181451 | 22 | 306 | 1.6 | 1.6 | 0.00 | 0.00 | 0.00 | 42 | 1017.6 |
| 20260504180950 | 21 | 321 | 0.0 | 0.0 | 0.00 | 0.00 | 0.00 | 41 | 1017.7 |
| 20260504180449 | 21 | 315 | 0.0 | 0.0 | 0.00 | 0.00 | 0.00 | 37 | 1017.8 |
| 20260504175947 | 21 | 321 | 0.0 | 0.0 | 0.00 | 0.00 | 0.00 | 38 | 1017.8 |
| 20260504175443 | 21 | 294 | 3.2 | 3.2 | 0.00 | 0.00 | 0.00 | 35 | 1017.8 |
| 20260504174941 | 21 | 323 | 0.0 | 0.0 | 0.00 | 0.00 | 0.00 | 41 | 1017.9 |
| 20260504174438 | 21 | 316 | 0.0 | 0.0 | 0.00 | 0.00 | 0.00 | 45 | 1017.9 |
| 20260504173936 | 21 | 332 | 0.0 | 0.0 | 0.00 | 0.00 | 0.00 | 44 | 1017.8 |
| 20260504173432 | 22 | 26 | 4.8 | 4.8 | 0.00 | 0.00 | 0.00 | 42 | 1018.0 |
| 20260504172930 | 21 | 329 | 0.0 | 1.6 | 0.00 | 0.00 | 0.00 | 42 | 1018.1 |
| 20260504172425 | 21 | 315 | 0.0 | 1.6 | 0.00 | 0.00 | 0.00 | 51 | 1018.1 |
| 20260504171922 | 20 | 49 | 4.8 | 4.8 | 0.00 | 0.00 | 0.00 | 44 | 1018.2 |
| 20260504171419 | 20 | 296 | 3.2 | 3.2 | 0.00 | 0.00 | 0.00 | 50 | 1018.2 |
| 20260504170916 | 20 | 316 | 1.6 | 1.6 | 0.00 | 0.00 | 0.00 | 46 | 1018.2 |
| 20260504170413 | 20 | 335 | 1.6 | 3.2 | 0.00 | 0.00 | 0.00 | 47 | 1018.2 |
| 20260504160331 | 18 | 342 | 1.6 | 1.6 | 0.00 | 0.00 | 0.00 | 50 | 1019.3 |